Sault Ste Marie, MI

5:57 AM EST on December 17, 2017 (GMT -0500)
Sault Ste Marie Municipal / Sanderson Field

Weather History for KANJ - July, 2014

Change the Weather History Date:

Wednesday, July 23, 2014

  Actual Average Record
Temperature  
Mean Temperature 59 °F 66 °F  
Max Temperature 69 °F 77 °F 92 °F (1989)
Min Temperature 49 °F 55 °F 39 °F (1981)
Degree Days  
Heating Degree Days 6 2  
Month to date heating degree days 81 56  
Since 1 June heating degree days 190 236  
Since 1 July heating degree days 81 56  
Cooling Degree Days 0 3  
Month to date cooling degree days 21 60  
Year to date cooling degree days 60 95  
Since 1 June cooling degree days 58 90  
Growing Degree Days 9 (Base 50)    
Moisture  
Dew Point 50 °F    
Average Humidity 69    
Maximum Humidity 93    
Minimum Humidity 45    
Precipitation  
Precipitation 0.00 in 0.10 in 1.69 in (2017)
Month to date precipitation 0.66 2.05  
Year to date precipitation 15.62 15.19  
Sea Level Pressure  
Sea Level Pressure 30.09 in    
Wind  
Wind Speed 10 mph (NW)    
Max Wind Speed 18 mph    
Max Gust Speed 26 mph    
Visibility 10 miles    
Events      
T = Trace of Precipitation, MM = Missing Value Source: NWS Daily Summary

Daily Weather History Graph

Daily Weather History Graph

Search for Another Location

Airport or City:

Trip Planner

Search our weather history database for the weather conditions in past years. The results will help you decide how hot, cold, wet, or windy it might be!

Date:

Astronomy

Jul. 23, 2014 Rise Set
Actual Time 6:08 AM EDT 9:19 PM EDT
Civil Twilight 5:31 AM EDT 9:55 PM EDT
Nautical Twilight 4:44 AM EDT 10:42 PM EDT
Astronomical Twilight 3:45 AM EDT 11:40 PM EDT
Moon 3:27 AM EDT (7/23) 6:45 PM EDT (7/23)
Length of Visible Light 16h 23m
Length of Day
15h 11m
Waning Crescent, 10% of the Moon is Illuminated
Jul 23
Waning Crescent
Jul 26
New
Aug 3
First Quarter
Aug 10
Full
Aug 17
Last Quarter

Hourly Weather History & Observations

Time (EDT) Temp. Dew Point Humidity Pressure Visibility Wind Dir Wind Speed Gust Speed Precip Events Conditions
12:21 AM 53.6 °F 51.8 °F 94% 29.97 in 10.0 mi NW 12.7 mph - N/A   Overcast
12:28 AM 53.1 °F 51.1 °F 93% 29.97 in 10.0 mi NW 9.2 mph - N/A   Mostly Cloudy
12:55 AM 54.0 °F 52.0 °F 93% 29.97 in 10.0 mi NW 10.4 mph - N/A   Scattered Clouds
1:55 AM 55.9 °F 53.1 °F 90% 29.99 in 10.0 mi NNW 8.1 mph 17.3 mph N/A   Partly Cloudy
2:55 AM 55.0 °F 53.1 °F 93% 29.99 in 10.0 mi NW 9.2 mph - N/A   Clear
3:55 AM 55.0 °F 52.0 °F 89% 30.01 in 10.0 mi WNW 8.1 mph - N/A   Mostly Cloudy
4:55 AM 55.9 °F 53.1 °F 90% 30.01 in 10.0 mi WNW 5.8 mph - N/A   Overcast
5:55 AM 55.9 °F 53.1 °F 90% 30.03 in 10.0 mi NW 6.9 mph - N/A   Overcast
6:55 AM 55.0 °F 52.0 °F 89% 30.06 in 10.0 mi NW 8.1 mph - N/A   Scattered Clouds
7:06 AM 55.9 °F 53.1 °F 90% 30.07 in 10.0 mi NW 5.8 mph - N/A   Mostly Cloudy
7:55 AM 57.9 °F 51.1 °F 78% 30.10 in 10.0 mi North 8.1 mph - N/A   Overcast
8:55 AM 59.0 °F 51.1 °F 75% 30.13 in 10.0 mi North 8.1 mph - N/A   Overcast
9:55 AM 61.0 °F 48.9 °F 64% 30.13 in 10.0 mi North 8.1 mph - N/A   Overcast
10:26 AM 62.1 °F 48.0 °F 60% 30.14 in 10.0 mi North 13.8 mph - N/A   Scattered Clouds
10:55 AM 62.1 °F 48.0 °F 60% 30.14 in 10.0 mi North 9.2 mph - N/A   Scattered Clouds
11:55 AM 66.0 °F 48.0 °F 52% 30.14 in 10.0 mi North 6.9 mph - N/A   Partly Cloudy
12:55 PM 68.0 °F 46.0 °F 45% 30.13 in 10.0 mi NNE 13.8 mph 18.4 mph N/A   Scattered Clouds
1:55 PM 68.0 °F 51.1 °F 55% 30.14 in 10.0 mi WNW 12.7 mph 19.6 mph N/A   Scattered Clouds
2:55 PM 68.0 °F 51.1 °F 55% 30.14 in 10.0 mi WNW 13.8 mph - N/A   Partly Cloudy
3:55 PM 63.0 °F 50.0 °F 63% 30.15 in 10.0 mi NW 11.5 mph 21.9 mph N/A   Overcast
4:55 PM 64.0 °F 50.0 °F 60% 30.16 in 10.0 mi NW 17.3 mph 24.2 mph N/A   Scattered Clouds
5:55 PM 64.0 °F 48.9 °F 58% 30.14 in 10.0 mi NW 16.1 mph 23.0 mph N/A   Scattered Clouds
6:55 PM 63.0 °F 48.0 °F 58% 30.14 in 10.0 mi NW 12.7 mph 20.7 mph N/A   Clear
7:55 PM 60.1 °F 46.9 °F 62% 30.14 in 10.0 mi NW 11.5 mph - N/A   Clear
8:55 PM 55.0 °F 46.9 °F 74% 30.13 in 10.0 mi WNW 6.9 mph - N/A   Clear
9:55 PM 53.1 °F 46.0 °F 77% 30.14 in 10.0 mi WNW 6.9 mph - N/A   Clear
10:55 PM 50.0 °F 45.0 °F 83% 30.14 in 10.0 mi WSW 4.6 mph - N/A   Clear
11:55 PM 50.0 °F 46.0 °F 86% 30.14 in 10.0 mi West 10.4 mph - N/A   Clear